EW5742 Weather Reports


time (UTC)temp
C
wind
direction
speed
KPH
gust
KPH
rain 1hr
cm
rain 24hr
cm
rain mn
cm
humidity
%
barometer
mb
20190619094605 22 195 0.0 0.0 0.03 1.12 1.12 97 1011.3
20190619093111 22 224 0.0 1.6 0.03 1.12 1.12 97 1011.3
20190619091555 22 258 0.0 0.0 0.00 1.09 1.09 97 1011.4
20190619090109 23 246 0.0 0.0 0.18 1.09 1.09 97 1011.4
20190619084550 23 283 0.0 0.0 0.18 1.09 1.09 97 1011.3
20190619083055 23 283 0.0 0.0 0.18 1.09 1.09 97 1011.4
20190619081605 23 221 0.0 3.2 0.18 1.09 1.09 97 1011.4
20190619080101 23 184 0.0 1.6 0.00 0.91 0.91 97 1011.4
20190619074545 23 160 0.0 0.0 0.00 0.91 0.91 97 1011.5
20190619073100 23 163 0.0 0.0 0.00 0.91 0.91 97 1011.8
20190619071610 23 163 0.0 0.0 0.10 0.91 0.91 96 1012.1
20190619070107 23 163 0.0 0.0 0.46 0.91 0.91 96 1012.4
20190619064530 23 93 0.0 3.2 0.91 0.91 0.91 96 1012.6
20190619063021 23 201 0.0 9.7 0.91 0.91 0.91 95 1012.9
20190619061535 23 142 0.0 1.6 0.76 0.76 0.76 95 1013.0
20190619060033 23 273 0.0 9.7 0.46 0.46 0.46 92 1013.1
20190619054529 25 246 0.0 11.3 0.00 0.00 0.00 88 1013.5
20190619053036 25 236 0.0 3.2 0.00 0.00 0.00 89 1013.4
20190619051533 25 166 0.0 1.6 0.00 0.00 0.00 89 1013.5
20190619050027 25 144 0.0 9.7 0.00 0.00 0.00 90 1013.8
20190619044503 25 31 0.0 1.6 0.00 0.00 0.00 91 1013.8
20190619043007 25 234 3.2 11.3 0.00 0.00 0.00 91 1013.7
20190619041740 25 148 0.0 6.4 0.00 0.00 0.00 91 1014.0
20190619040150 25 235 0.0 8.0 0.00 0.00 0.00 90 1014.0
20190619034746 25 203 0.0 9.7 0.00 0.00 0.00 89 1014.0
20190619033149 25 207 0.0 9.7 0.00 0.00 0.00 88 1013.9
20190619031817 25 227 1.6 8.0 0.00 0.00 0.00 87 1014.1
20190619030150 25 219 1.6 11.3 0.00 0.00 0.00 86 1014.3
20190619024725 25 146 3.2 14.5 0.00 0.00 0.00 83 1014.5
20190619023222 25 192 1.6 12.9 0.00 0.00 0.00 86 1014.7
20190619021701 26 136 1.6 11.3 0.00 0.00 0.00 89 1014.8
20190619020227 25 95 0.0 8.0 0.00 0.00 0.00 90 1014.7
20190619014638 25 146 0.0 9.7 0.00 0.00 0.00 90 1014.5
20190619013130 25 129 1.6 8.0 0.00 0.00 0.00 90 1014.6
20190619011951 25 131 0.0 4.8 0.00 0.00 0.00 90 1014.7
20190619010102 25 233 0.0 4.8 0.00 0.00 0.00 89 1014.6
20190619004642 26 181 1.6 9.7 0.00 0.00 0.00 87 1014.5
20190619003107 26 145 1.6 11.3 0.00 0.00 0.00 88 1014.6
20190619001741 26 186 3.2 14.5 0.00 0.00 0.00 86 1014.8
20190619000128 26 181 1.6 12.9 0.00 0.00 0.00 85 1014.8
20190618234653 26 176 1.6 14.5 0.00 0.00 0.00 84 1014.7
20190618233123 26 142 4.8 11.3 0.00 0.00 0.00 83 1014.6
20190618231634 27 224 0.0 14.5 0.00 0.00 0.00 82 1014.6
20190618230124 27 186 1.6 20.9 0.00 0.00 0.00 82 1014.7
20190618224647 27 226 3.2 19.3 0.00 0.00 0.00 81 1014.6
20190618223114 27 207 1.6 17.7 0.00 0.00 0.00 79 1014.5
20190618221653 28 146 1.6 16.1 0.00 0.00 0.00 78 1014.4
20190618220155 28 160 1.6 19.3 0.00 0.00 0.00 79 1014.3
20190618214601 28 161 6.4 20.9 0.00 0.00 0.00 80 1014.4
20190618213156 28 160 9.7 20.9 0.00 0.00 0.00 80 1014.4
20190618211634 29 186 4.8 17.7 0.00 0.00 0.00 78 1014.5
20190618210125 29 148 9.7 25.7 0.00 0.00 0.00 77 1014.7
20190618204605 29 221 6.4 20.9 0.00 0.00 0.00 76 1014.8
20190618203059 29 148 9.7 24.1 0.00 0.00 0.00 76 1014.9
20190618201623 29 145 11.3 20.9 0.00 0.00 0.00 74 1015.2
20190618200054 30 158 3.2 19.3 0.00 0.00 0.00 73 1015.3
20190618194611 30 158 6.4 22.5 0.00 0.00 0.00 73 1015.5
20190618193050 29 235 3.2 24.1 0.00 0.00 0.00 73 1015.7
20190618191552 30 176 6.4 29.0 0.00 0.00 0.00 72 1015.8
20190618190106 30 204 9.7 22.5 0.00 0.00 0.00 70 1016.0
20190618184630 30 176 6.4 25.7 0.00 0.00 0.00 69 1016.2
20190618183027 30 119 6.4 27.4 0.00 0.00 0.00 73 1016.4
20190618181605 30 96 6.4 24.1 0.00 0.00 0.00 72 1016.4
20190618180051 30 227 1.6 19.3 0.00 0.00 0.00 71 1016.4
20190618174534 30 248 1.6 25.7 0.00 0.00 0.00 74 1016.6
20190618171523 30 151 4.8 19.3 0.00 0.00 0.00 74 1016.7
20190618170010 30 198 6.4 16.1 0.00 0.00 0.00 74 1016.8
20190618164513 30 132 6.4 20.9 0.00 0.00 0.00 72 1017.0
20190618163008 30 105 6.4 19.3 0.00 0.00 0.00 71 1016.9
20190618161508 30 179 1.6 16.1 0.00 0.00 0.00 72 1017.1
20190618160006 30 153 1.6 16.1 0.00 0.00 0.00 73 1017.1
20190618154505 30 160 4.8 19.3 0.00 0.00 0.00 73 1017.1
20190618153006 30 166 3.2 19.3 0.00 0.00 0.00 75 1017.3
20190618151505 31 148 8.0 17.7 0.00 0.00 0.00 71 1017.2
20190618150003 30 218 4.8 16.1 0.00 0.00 0.00 71 1017.2
20190618144656 30 139 0.0 11.3 0.00 0.00 0.00 74 1017.1
20190618143333 30 277 4.8 14.5 0.00 0.00 0.00 75 1017.2
20190618141648 30 176 1.6 6.4 0.00 0.00 0.00 73 1017.2
20190618140111 29 273 0.0 9.7 0.00 0.00 0.00 75 1017.3
20190618134629 29 127 1.6 6.4 0.00 0.00 0.00 76 1017.5
20190618133106 29 177 1.6 8.0 0.00 0.00 0.00 77 1017.6
20190618131716 28 241 0.0 12.9 0.00 0.00 0.00 79 1017.6
20190618130236 27 245 0.0 3.2 0.00 0.00 0.00 83 1017.6
20190618124646 27 288 0.0 1.6 0.00 0.00 0.00 84 1017.8
20190618123108 27 271 0.0 3.2 0.00 0.00 0.00 82 1017.6
20190618121630 27 93 0.0 8.0 0.00 0.00 0.00 85 1017.6
20190618120113 27 269 0.0 4.8 0.00 0.00 0.00 86 1017.6
20190618114547 26 136 0.0 11.3 0.00 0.00 0.00 88 1017.6
20190618113055 26 179 0.0 1.6 0.00 0.00 0.00 90 1017.7
20190618111608 26 144 0.0 4.8 0.00 0.00 0.00 93 1017.7
20190618110059 25 147 0.0 0.0 0.00 0.00 0.00 96 1017.7
20190618104617 24 276 0.0 0.0 0.00 0.00 0.00 96 1017.7
20190618103048 23 142 0.0 0.0 0.00 0.00 0.00 96 1017.5
20190618101610 23 205 0.0 3.2 0.00 0.00 0.00 96 1017.4
20190618100049 23 232 0.0 1.6 0.00 0.00 0.00 96 1017.4